Tracking 23752 objects as of 23-Oct-2021
HD Live streaming from Space Station
objects crossing your sky now

FREGAT DEB

Track FREGAT DEB now!
10-day predictions


NORAD ID: 46406
Int'l Code: 2011-037LK
Perigee: 783.9 km
Apogee: 4,459.4 km
Inclination: 51.6 °
Period: 141.4 minutes
Semi major axis: 8992 km
RCS: Unknown
Launch date: July 18, 2011
Source: Commonwealth of Independent States (former USSR) (CIS)
Launch site: TYURATAM MISSILE AND SPACE COMPLEX (TTMTR)

Note: This is SATELLITE DEBRIS
aabbcc
Your satellite tracking list
Your tracking list is empty




NASA's NSSDC Master Catalog

Two Line Element Set (TLE):
1 46406U 11037LM  21291.52356597  .00000304  00000-0  10725-2 0  9993
2 46406  51.5818 103.8722 2043641  50.3855 326.0242 10.18059447 45354
Source of the keplerian elements: AFSPC